TARTU/ULENURME current weather conditions

sailwx.info

Wind from 180 at 2 knots

Air temperature -1.0° C
Visibility: greater than 2.5 NM
Dewpoint -3.0° C

Last reported at 2014-Nov-27 00:50 UTC.
Time now 2014-Nov-27 01:43 UTC

Location: N 58°18' E 026°44'.
View on Google Maps.

See reports from other nearby stations

  
Tides and Currents Weather Stations Pressure Air Temp Water Temp Dewpoint Dewpoint Depression Visibility Wind Speed Wind Dir Waves Ship Positions
date/time (UTC)wind fromknots sea level pressurealtimeterstation pressurevisibilityair tempwater tempwave heightnotes
2014-Nov-27 00:50 180 2 2.5-1.0
2014-Nov-26 23:50 170 4 2.7-1.0 Mist.
2014-Nov-26 22:50 160 2 3.2-1.0
2014-Nov-26 21:50 170 5 2.7-1.0
2014-Nov-26 20:50 170 4 2.7-1.0 Mist.
2014-Nov-26 19:50 160 2 2.7-1.0
2014-Nov-26 18:50 170 2 2.6-1.0
2014-Nov-26 17:50 160 4 2.6-1.0 Mist.
2014-Nov-26 16:50 170 4 2.7-1.0
2014-Nov-26 15:50 160 4 2.7-1.0 Light snow grains.
2014-Nov-26 14:50 150 4 2.7-1.0 Light snow.
2014-Nov-26 13:50 150 2 3.2-1.0 Light snow.
2014-Nov-26 12:50 170 5 4.3-1.0
2014-Nov-26 11:50 180 5 5.4-1.0
2014-Nov-26 10:50 180 6 5.4-1.0
2014-Nov-26 09:50 180 5 5.4-1.0
2014-Nov-26 08:50 170 5 5.4-1.0
2014-Nov-26 07:50 170 5 4.9-1.0
2014-Nov-26 06:50 160 4 5.4-1.0
2014-Nov-26 05:50 160 4 4.3-1.0
2014-Nov-26 04:50 160 5 4.3-1.0
2014-Nov-26 03:50 180 5 4.3-1.0 Light snow.
2014-Nov-26 02:50 180 5 3.2-1.0 Snow grains.
2014-Nov-26 01:50 170 6 3.8-1.0 Mist.
2014-Nov-26 00:50 170 7 4.3-1.0 Mist.
2014-Nov-25 23:50 170 6 3.8-1.0
2014-Nov-25 22:50 170 6 2.7-1.0 Light snow.
2014-Nov-25 21:50 170 7 4.3-1.0 Snow grains.
2014-Nov-25 20:50 180 7 5.4-1.0
2014-Nov-25 19:50 170 6 5.4-1.0
2014-Nov-25 18:50 180 7 5.4-1.0
2014-Nov-25 17:50 180 8 4.9-1.0
2014-Nov-25 16:50 180 10 4.3-1.0 Light snow grains.
2014-Nov-25 15:50 180 9 4.3-1.0
2014-Nov-25 14:50 180 9 4.3-1.0
2014-Nov-25 13:50 180 9 4.3-1.0
2014-Nov-25 12:50 180 8 4.3-1.0
2014-Nov-25 11:50 170 9 4.3-1.0
2014-Nov-25 10:50 180 8 4.3-1.0
2014-Nov-25 09:50 180 7 3.8-1.0
2014-Nov-25 08:50 170 9 3.2-2.0
2014-Nov-25 07:50 180 9 3.2-3.0
2014-Nov-25 06:50 170 11 2.7-3.0 Mist.
2014-Nov-25 05:50 170 11 2.6-3.0
2014-Nov-25 04:50 170 9 2.7-3.0
2014-Nov-25 03:50 170 13 3.8-3.0
2014-Nov-25 02:50 190 13 3.2-3.0
2014-Nov-25 01:50 200 12 3.2-3.0